#timestamp,LO_Frequency,Hit,StdDev 
1537977615.7,286046996.5,Y
1537977635.5,286046998.3,P
1537977655.3,286047000.8,N
1537977675.2,286046999.4,N
1537977695.0,286046998.6,N
1537977695.9,286046998.6,N
1537977715.8,286046998.2,N
1537977735.6,286047000.0,N
1537977755.4,286047002.4,N
1537977775.3,286047002.2,N
1537977795.1,286047002.5,N
1537977815.9,286047002.7,N
1537977835.7,286047001.8,N
1537977855.5,286047002.4,N
1537977875.4,286047001.1,N
1537977895.2,286047000.2,N
1537977915.0,286047002.5,N
1537977915.9,286047002.5,N
1537977935.8,286047002.8,N
1537977955.6,286047002.8,N
1537977975.5,286047002.2,N
1537977995.3,286047000.1,N
1537978015.1,286047000.4,N
1537978035.9,286047002.8,N
1537978055.7,286047002.6,N
1537978075.5,286047004.3,N
1537978095.4,286047002.0,N
1537978115.2,286047001.9,N
1537978135.1,286047001.8,N
1537978136.0,286047001.8,N
1537978155.8,286047004.1,N
1537978175.6,286047004.4,N
1537978195.5,286047001.9,N
1537978215.3,286046999.8,N
1537978235.1,286047002.5,N
1537978255.9,286047000.1,N
1537978275.7,286047000.0,N
1537978295.6,286047000.7,N
1537978315.4,286047001.1,N
1537978335.2,286046998.1,N
1537978355.1,286047000.7,N
1537978356.0,286047000.7,N
1537978375.8,286047000.5,N
1537978395.6,286047002.8,N
1537978415.5,286047002.0,N
1537978435.3,286047001.4,N
1537978455.1,286047002.4,N
1537978475.9,286047001.4,N
1537978495.7,286047003.9,N
1537978515.6,286047001.3,N
1537978535.4,286047003.8,N
1537978555.2,286047004.3,N
1537978575.1,286047001.4,N
1537978576.0,286047001.4,N
1537978595.8,286047001.5,N
1537978615.6,286047003.9,N
1537978635.5,286047004.2,N
1537978655.3,286047005.9,Y
1537978675.2,286047002.0,P
1537978695.9,286047000.3,P
1537978715.7,286047000.3,N
1537978735.6,286047000.3,N
1537978755.4,286047001.5,N
1537978775.2,286047011.9,Y
1537978795.1,286047000.9,P
1537978796.0,286047000.9,P
1537978815.8,286046999.7,P
1537978835.7,286046998.5,N
1537978855.5,286047000.5,N
1537978875.3,286046999.9,N
1537978895.2,286047000.9,N
1537978915.9,286047000.9,N
1537978935.7,286047002.2,N
1537978955.6,286047002.3,N
1537978975.4,286046999.9,N
1537978995.3,286047000.1,N
1537979015.1,286047002.4,N
1537979016.0,286047002.4,N
1537979035.8,286047002.7,N
1537979055.7,286047000.6,N
1537979075.5,286046999.9,N
1537979095.3,286047001.1,N
1537979115.2,286047000.0,N
1537979135.0,286047001.1,N
1537979135.9,286047001.1,N
1537979155.8,286046996.7,Y
1537979175.6,286046997.8,P
1537979195.4,286046993.4,P
1537979215.3,286046994.2,N
1537979235.1,286046996.1,N
1537979255.8,286046994.0,N
1537979275.7,286046997.7,N
1537979295.5,286046998.0,N
1537979315.3,286046995.0,N
1537979335.2,286046997.8,N
1537979355.0,286046994.9,N
1537979355.9,286046994.9,N
1537979375.8,286046997.0,N
1537979395.6,286046999.5,N
1537979415.4,286046997.2,N
1537979435.3,286046997.6,N
1537979455.1,286046997.5,N
1537979475.8,286046995.2,N
1537979495.7,286046997.9,N
1537979515.5,286046997.8,N
1537979535.4,286046997.2,N
1537979555.2,286046995.3,N
1537979575.0,286046996.1,N
1537979575.9,286046996.1,N
1537979595.8,286046995.2,N
1537979615.6,286046995.1,N
1537979635.4,286046995.6,N
1537979655.3,286046997.5,N
1537979675.1,286046995.4,N
1537979695.9,286046997.0,N
1537979715.7,286046997.4,N
1537979735.5,286046997.6,N
1537979755.4,286046997.5,N
1537979775.2,286046996.5,N
1537979795.0,286046997.4,N
1537979795.9,286046997.4,N
1537979815.8,286046995.9,Y
1537979835.6,286046998.7,P
1537979855.5,286047002.5,N
1537979875.3,286047000.2,N
1537979895.1,286046998.6,N
1537979915.9,286046998.7,N
1537979935.7,286047001.2,N
1537979955.5,286046999.4,N
1537979975.4,286047000.6,N
1537979995.2,286046998.7,N
1537980015.1,286046999.0,N
1537980016.0,286046999.0,N
1537980035.8,286046999.1,N
1537980055.6,286046999.3,N
1537980075.5,286046998.8,N
1537980095.3,286046999.5,N
1537980115.1,286046998.7,N
1537980135.9,286046999.3,N
1537980155.7,286047000.8,N
1537980175.6,286046999.4,N
1537980195.4,286046999.6,N
1537980215.2,286046998.2,N
1537980235.1,286046999.5,N
1537980236.0,286046999.5,N
1537980255.8,286046998.1,N
1537980275.6,286046997.2,N
1537980295.5,286046997.6,N
1537980315.3,286046996.8,N
1537980335.2,286046996.9,N
1537980355.9,286046999.2,N
1537980375.7,286047001.0,N
1537980395.6,286047001.1,N
1537980415.4,286046998.2,N
1537980435.2,286046998.7,N
1537980455.1,286046999.3,N
1537980456.0,286046999.3,N
1537980475.8,286046998.9,N
1537980495.7,286046996.5,Y
1537980515.5,286046998.8,P
1537980535.3,286046999.2,P
1537980555.2,286046998.8,P
1537980575.0,286046999.3,Y
1537980575.9,286046999.3,P
1537980595.8,286046998.9,P
1537980615.6,286046999.0,P
1537980635.4,286046996.6,Y
1537980655.3,286046999.5,P
1537980675.1,286046998.9,P
1537980695.8,286046998.2,P
1537980715.7,286046998.2,Y
1537980735.5,286046999.7,P
1537980755.4,286047002.6,P
1537980775.2,286047002.4,N
1537980795.0,286047002.8,N
1537980795.9,286047002.8,N
1537980815.8,286046999.7,N
1537980835.6,286047002.1,N
1537980855.5,286047003.8,N
1537980875.3,286047003.9,N
1537980895.1,286047002.5,N
1537980915.9,286047001.8,N
1537980935.7,286047002.0,N
1537980955.5,286047001.4,N
1537980975.4,286047004.9,Y
1537980995.2,286047004.2,P
1537981015.1,286047003.7,P
1537981016.0,286047003.7,P
1537981035.8,286047005.6,Y
1537981055.6,286047002.2,P
1537981075.5,286047000.2,N
1537981095.3,286047000.1,N
1537981115.1,286047000.4,N
1537981135.9,286047001.1,N
1537981155.7,286046998.6,N
1537981175.6,286046996.9,N
1537981195.4,286046999.4,N
